星链-3108 (STARLINK-3108 )

导读

STARLINK-3108是美国SpaceX公司星链星座的V1.5批次卫星,于2021年11月13日由猎鹰9号火箭发射升空,运行在近地轨道。卫星重量约295公斤,采用平板设计,搭载Ku/Ka波段相控阵通信载荷,配备氪离子霍尔推进器,具备自主轨道维持和避碰能力。作为星链全球宽带互联网星座的组成部分,它可为偏远地区提供高速网络接入,设计寿命约5年,退役后会主动离轨再入大气层烧毁。

基本信息
目录编号:
49439
目录名称:
STARLINK-3108
国际标识:
2021-104AH
轨道中心:
EARTH
卫星名称:
星链-3108
卫星全名:
星链-3108 (STARLINK-3108 )
卫星状态:
已陨落 最后检测时间 2024-05-16
发射日期:
2021-11-13 UTC
国别 :
美国 (US)
星等 :
--
轨道信息
数据来源 国际轨道数据
星历时间: 2024-05-17T06:09:27+0800
轨道信息已过期758天
半长轴: 6587.389km
偏心率: 0.0007023
轨道倾角: 53.194°
近地点辐角 311.633°
升交点赤经 243.152°
平近点角 103.702°
近地点: 204.627km
远地点: 213.881km
周期: 88.681分钟
每日圈数: 16.238011
详细信息
固有亮度:
5
最大亮度:
2.5
卫星平台:
Starlink v1.5
覆盖范围:
全球
运营商:
太空探索技术公司
运营商所在国:
美国
制造商(研发单位):
太空探索技术公司
制造商所在国:
美国
使用方式:
暂无
卫星简介
星链(Starlink)计划是由太空探索技术公司(SpaceX)提出的一个巨型低轨卫星互联网星座项目,计划在2019年至2024年间在太空搭建由约1.2万颗卫星组成的“星链”网络,其中1584颗将部署在地球上空550千米处的近地轨道,并从2020年开始工作。该卫星已陨落。